Moffett NAS, CA

8:45 AM PDT on April 27, 2017 (GMT -0700)
Moffett Federal Air Field

Weather History for KNUQ - February, 2007

Change the Weather History Date:

Friday, February 16, 2007

  Actual Average Record
Temperature  
Mean Temperature 58 °F 54 °F  
Max Temperature 71 °F 62 °F 78 °F (2016)
Min Temperature 46 °F 46 °F 32 °F (2006)
Degree Days  
Heating Degree Days 6    
Month to date heating degree days  
Since 1 July heating degree days  
Cooling Degree Days 0    
Month to date cooling degree days  
Year to date cooling degree days  
Growing Degree Days 8 (Base 50)    
Moisture  
Dew Point 47 °F    
Average Humidity 80    
Maximum Humidity 100    
Minimum Humidity 44    
Precipitation  
Precipitation 0.01 in 0.12 in 1.49 in (1980)
Month to date precipitation 1.69  
Year to date precipitation 4.44  
Sea Level Pressure  
Sea Level Pressure 30.42 in    
Wind  
Wind Speed 3 mph (NW)    
Max Wind Speed 9 mph    
Max Gust Speed -    
Visibility 5 miles    
Events Fog    
T = Trace of Precipitation, MM = Missing Value Source: NWS Daily Summary

Daily Weather History Graph

Daily Weather History Graph

Search for Another Location

Airport or City:

Trip Planner

Search our weather history database for the weather conditions in past years. The results will help you decide how hot, cold, wet, or windy it might be!

Date:

Astronomy

Feb. 16, 2007 Rise Set
Actual Time 6:56 AM PST 5:48 PM PST
Civil Twilight 6:29 AM PST 6:15 PM PST
Nautical Twilight 5:59 AM PST 6:45 PM PST
Astronomical Twilight 5:28 AM PST 7:16 PM PST
Moon 6:33 AM PST (2/16) 4:56 PM PST (2/16)
Length of Visible Light 11h 45m
Length of Day
10h 52m
Waning Crescent, 1% of the Moon is Illuminated
Feb 16
Waning Crescent
Feb 17
New
Feb 23
First Quarter
Mar 3
Full
Mar 11
Last Quarter

Hourly Weather History & Observations

Time (PST) Temp. Windchill Dew Point Humidity Pressure Visibility Wind Dir Wind Speed Gust Speed Precip Events Conditions
12:56 AM 50.0 °F - 48.0 °F 93% 30.48 in 10.0 mi South 3.5 mph - N/A   Clear
1:54 AM 50.0 °F - 48.2 °F 94% 30.47 in 5.0 mi Calm Calm - N/A   Partly Cloudy
1:56 AM 50.0 °F - 48.0 °F 93% 30.48 in 5.0 mi Calm Calm - N/A   Partly Cloudy
2:15 AM 48.2 °F - 46.4 °F 93% 30.46 in 2.0 mi ESE 3.5 mph - N/A   Mostly Cloudy
2:17 AM 48.2 °F - 46.4 °F 93% 30.46 in 1.2 mi ESE 3.5 mph - N/A   Mostly Cloudy
2:19 AM 48.2 °F - 46.4 °F 93% 30.46 in 0.8 mi Calm Calm - N/A   Mist
2:29 AM 48.2 °F - 48.2 °F 100% 30.46 in 0.2 mi Calm Calm - N/A Fog Fog
2:56 AM 48.9 °F - 48.0 °F 97% 30.46 in 0.2 mi Calm Calm - N/A Fog Fog
3:14 AM 48.2 °F - 46.4 °F 93% 30.45 in 0.2 mi Calm Calm - N/A Fog Fog
3:56 AM 48.9 °F - 48.0 °F 97% 30.45 in 0.2 mi WNW 3.5 mph - N/A Fog Fog
4:56 AM 48.0 °F - 46.9 °F 96% 30.45 in 0.2 mi Calm Calm - N/A Fog Fog
5:14 AM 48.2 °F - 46.4 °F 93% 30.45 in 0.5 mi Calm Calm - N/A Fog Fog
5:42 AM 46.4 °F 44.3 °F 46.4 °F 100% 30.45 in 1.5 mi SSW 4.6 mph - 0.01 in   Mostly Cloudy
5:45 AM 46.4 °F 45.2 °F 46.4 °F 100% 30.45 in 3.0 mi SSW 3.5 mph - 0.01 in   Mostly Cloudy
5:56 AM 46.9 °F - 46.0 °F 97% 30.45 in 9.0 mi Calm Calm - 0.01 in   Scattered Clouds
6:16 AM 46.4 °F 42.4 °F 44.6 °F 93% 30.45 in 1.2 mi ESE 8.1 mph - N/A   Partly Cloudy
6:18 AM 46.4 °F 42.9 °F 44.6 °F 93% 30.45 in 0.8 mi ESE 6.9 mph - N/A   Mist
6:35 AM 46.4 °F 45.2 °F 44.6 °F 93% 30.45 in 0.2 mi SE 3.5 mph - N/A Fog Fog
6:56 AM 46.9 °F - 46.0 °F 97% 30.47 in 0.2 mi SSE 3.5 mph - N/A Fog Fog
7:56 AM 46.0 °F 44.8 °F 46.0 °F 100% 30.48 in 0.2 mi East 3.5 mph - N/A Fog Fog
8:26 AM 46.4 °F - 46.4 °F 100% 30.47 in 1.0 mi Calm Calm - N/A   Mist
8:31 AM 48.2 °F - 48.2 °F 100% 30.47 in 3.0 mi Calm Calm - N/A   Overcast
8:56 AM 48.9 °F - 46.9 °F 93% 30.48 in 5.0 mi Calm Calm - N/A   Scattered Clouds
9:56 AM 55.0 °F - 50.0 °F 83% 30.48 in 10.0 mi North 4.6 mph - N/A   Clear
10:56 AM 55.9 °F - 51.1 °F 84% 30.47 in 10.0 mi North 6.9 mph - N/A   Clear
11:56 AM 66.9 °F - 46.0 °F 47% 30.43 in 10.0 mi NNW 3.5 mph - N/A   Clear
12:56 PM 68.0 °F - 46.9 °F 47% 30.40 in 10.0 mi North 5.8 mph - N/A   Clear
1:56 PM 69.1 °F - 50.0 °F 51% 30.37 in 10.0 mi NNW 8.1 mph - N/A   Clear
2:56 PM 71.1 °F - 48.0 °F 44% 30.35 in 10.0 mi North 9.2 mph - N/A   Clear
3:56 PM 70.0 °F - 46.9 °F 44% 30.32 in 10.0 mi NW 6.9 mph - N/A   Clear
4:56 PM 69.1 °F - 46.0 °F 44% 30.30 in 10.0 mi NW 8.1 mph - N/A   Clear
5:56 PM 63.0 °F - 48.9 °F 60% 30.30 in 10.0 mi NNW 6.9 mph - N/A   Clear
6:56 PM 64.0 °F - 46.0 °F 52% 30.30 in 10.0 mi West 3.5 mph - N/A   Clear
7:56 PM 61.0 °F - 48.0 °F 62% 30.31 in 10.0 mi WNW 3.5 mph - N/A   Clear
8:56 PM 60.1 °F - 46.9 °F 62% 30.31 in 10.0 mi West 4.6 mph - N/A   Clear
9:56 PM 62.1 °F - 46.9 °F 58% 30.30 in 10.0 mi West 5.8 mph - N/A   Clear
10:56 PM 62.1 °F - 45.0 °F 53% 30.28 in 10.0 mi West 5.8 mph - N/A   Clear
11:56 PM 61.0 °F - 44.1 °F 54% 30.27 in 10.0 mi NW 4.6 mph - N/A   Clear